Flag for USA

Past Weather in Thomasville, North Carolina, USA — Yesterday and Last 2 Weeks

Now
49 °F

Passing clouds.


Feels Like: 46 °F
Forecast: 65 / 46 °F
Wind: 7 mph from Northeast

Location: Piedmont Triad International Airport
Current Time: Sep 20, 2020 at 1:20:45 am
Latest Report: Sep 20, 2020 at 12:54 am
Visibility: 10 mi
Pressure30.33 "Hg
Humidity: 77%
Dew Point: 42 °F
Location of ThomasvilleLocation

Past Weather in Thomasville — Graph

°F

Thomasville Temperature Yesterday

Maximum temperature yesterday: 65 °F (at 12:54 am)
Minimum temperature yesterday: 50 °F (at 9:54 pm)
Average temperature yesterday: 58 °F

High & Low Weather Summary for the Past Weeks

 TemperatureHumidityPressure
High87 °F (Sep 11, 1:54 pm)100% (Sep 8, 11:54 pm)30.32 "Hg (Sep 8, 11:54 pm)
Low50 °F (Sep 19, 9:54 pm)44% (Sep 6, 4:54 pm)29.80 "Hg (Sep 18, 1:54 am)
Average70 °F81%30.11 "Hg
* Reported Sep 4 11:54 pm — Sep 19 11:54 pm, Thomasville. Weather by CustomWeather, © 2020

Note: Actual official high and low records may vary slightly from our data, if they occured in-between our weather recording intervals... More about our weather records

Thomasville Weather History for the Previous 24 Hours

Scroll right to see more
 ConditionsComfort  
Time TempWeatherWind HumidityBarometerVisibility
11:54 pm
Sat, Sep 19
50 °FPassing clouds.7 mph74%30.32 "Hg10 mi
10:54 pm51 °FPassing clouds.9 mph69%30.31 "Hg10 mi
9:54 pm50 °FHigh level clouds.9 mph74%30.30 "Hg10 mi
8:54 pm53 °FHigh level clouds.7 mph64%30.29 "Hg10 mi
7:54 pm54 °FPassing clouds.8 mph62%30.27 "Hg10 mi
6:54 pm57 °FPartly sunny.12 mph51%30.26 "Hg10 mi
5:54 pm59 °FPartly sunny.12 mph48%30.25 "Hg10 mi
4:54 pm62 °FPartly sunny.10 mph48%30.25 "Hg10 mi
3:54 pm62 °FPartly sunny.12 mph44%30.24 "Hg10 mi
2:54 pm61 °FPartly sunny.15 mph44%30.25 "Hg10 mi
1:54 pm61 °FPassing clouds.12 mph48%30.27 "Hg10 mi
12:54 pm60 °FOvercast.15 mph46%30.28 "Hg10 mi
11:54 am59 °FOvercast.16 mph48%30.29 "Hg10 mi
10:54 am58 °FMore clouds than sun.16 mph47%30.29 "Hg10 mi
9:54 am55 °FMostly cloudy.18 mph47%30.28 "Hg10 mi
8:54 am55 °FMostly cloudy.12 mph55%30.25 "Hg10 mi
7:54 am56 °FMostly cloudy.15 mph58%30.22 "Hg10 mi
6:54 am57 °FMostly cloudy.13 mph62%30.19 "Hg10 mi
5:54 am58 °FPartly cloudy.17 mph65%30.16 "Hg10 mi
4:54 am60 °FPassing clouds.17 mph60%30.13 "Hg10 mi
3:54 am62 °FPassing clouds.13 mph60%30.12 "Hg10 mi
2:54 am62 °FPartly cloudy.12 mph70%30.11 "Hg10 mi
1:54 am64 °FPartly cloudy.9 mph70%30.11 "Hg10 mi
Weather by CustomWeather, © 2020

See weather overview